Wind_Speed
9 9 8 8 8 8 9 9 9 9 10 10 11 13 15 17 17 18 19 19 19 19 18 16 15 15 15 16 17 18 18 20 21 22 23 24 25 27 28 29 29 30 31 32
7 7 7 7 8 8 7 8 8 9 11 11 11 12 13 14 15 16 15 16 15 15 14 13 14 14 15 16 17 18 19 20 22 23 25 26 28 28 29 30 32 32 33 34
6 6 6 6 7 8 8 8 9 9 10 10 10 10 11 12 12 11 12 12 10 10 10 11 13 14 15 16 17 18 20 21 23 24 26 28 29 31 32 33 34 35 36 36
6 6 6 7 8 9 8 9 10 10 10 9 9 9 10 9 8 7 7 8 8 9 10 11 12 14 14 16 18 20 21 23 24 26 27 29 30 32 33 35 36 37 37 37
7 7 7 8 8 9 8 9 10 10 9 9 9 9 9 7 6 5 5 6 7 7 9 11 13 14 16 17 19 21 22 24 26 28 29 31 32 34 35 36 37 37 38 38
8 8 8 8 8 8 8 8 9 8 8 8 8 7 7 6 5 4 4 4 5 6 8 11 13 15 17 18 20 22 24 26 28 29 31 32 33 34 35 36 36 37 37 38
7 9 9 9 8 8 8 9 8 7 7 7 7 6 7 6 5 4 4 5 6 7 9 12 14 16 17 19 21 23 26 27 29 30 32 33 33 33 34 34 35 35 36 36
9 9 9 9 9 8 9 9 9 8 6 6 6 6 5 5 4 4 4 6 7 9 12 14 15 17 18 21 23 25 27 28 30 31 32 33 33 33 34 34 34 34 35 35
9 8 8 8 8 8 9 9 9 8 6 6 5 5 5 5 5 5 7 8 9 11 13 14 16 17 19 21 24 26 28 30 31 32 32 33 33 34 34 34 35 35 35 35
8 8 8 7 7 7 8 8 8 7 7 6 4 5 6 6 7 8 9 10 11 12 14 15 16 18 21 23 26 29 31 32 33 33 33 34 34 34 35 35 35 35 36 36
9 8 7 7 7 7 7 7 7 7 7 6 6 6 7 7 8 9 10 11 12 13 15 16 19 21 24 27 29 32 33 33 33 34 34 35 35 36 36 36 36 37 37 37
9 8 8 8 7 7 7 8 7 7 8 7 7 7 8 8 10 11 12 12 14 15 17 19 21 24 26 29 32 33 34 34 35 35 35 36 37 37 37 37 38 37 37 38
10 10 9 9 9 8 9 8 8 8 8 9 9 9 10 10 12 13 14 15 16 18 20 22 24 26 29 31 33 34 35 35 35 36 36 37 38 38 38 38 38 38 38 39
11 10 10 11 11 11 10 10 9 9 10 10 10 11 12 13 14 15 17 17 19 20 22 24 26 28 31 33 35 35 35 36 36 37 37 38 39 39 39 39 39 39 39 39
11 11 11 12 12 12 10 10 10 11 11 12 12 13 15 16 17 18 19 20 21 22 24 26 28 30 33 34 36 35 36 36 37 38 39 39 40 40 40 40 40 40 40 40
11 11 12 12 13 12 10 10 11 12 12 13 14 15 17 18 19 19 20 21 22 24 26 28 30 32 34 35 35 35 36 37 38 39 40 40 41 41 41 41 41 41 41 41
11 11 11 12 12 11 10 10 10 11 12 14 15 16 18 19 20 20 21 22 23 25 27 29 31 33 35 35 35 36 37 38 39 40 41 41 41 42 42 42 42 42 42 42
11 11 11 10 10 10 8 9 10 11 13 14 16 17 19 19 20 20 21 23 25 27 29 30 32 34 35 35 35 36 38 39 40 41 42 42 42 43 43 43 42 42 42 42
11 10 10 10 10 8 8 9 10 12 13 15 17 18 19 19 20 21 22 24 26 28 30 32 33 34 35 35 36 37 39 41 41 42 43 44 44 43 43 43 43 42 42 42
11 11 11 10 9 8 8 9 11 12 14 16 17 18 19 19 20 22 24 25 28 30 31 32 33 34 35 36 37 39 41 42 43 43 44 45 44 44 44 44 43 42 42 41
13 13 13 12 11 9 10 12 13 15 16 17 18 18 19 20 22 23 25 27 29 30 32 33 34 35 35 36 38 40 42 43 44 45 45 45 45 44 44 44 43 42 42 41
15 14 14 13 13 13 13 14 15 17 18 19 20 20 21 23 24 25 27 28 29 31 32 34 35 36 36 37 39 41 42 44 45 46 46 46 45 45 44 43 42 42 41 40
17 17 16 15 15 16 16 16 17 18 20 21 22 23 24 25 26 27 28 30 31 32 34 35 36 37 37 38 40 42 43 45 46 46 46 46 46 45 44 43 42 41 40 39
20 20 20 19 18 19 19 20 20 21 22 23 24 25 26 26 27 29 30 31 32 33 35 36 36 37 39 40 42 44 45 46 46 47 47 46 46 45 44 43 41 40 39 39
22 24 24 23 22 22 21 22 22 23 24 25 26 26 27 28 29 30 31 32 33 34 36 36 37 38 40 42 44 45 46 46 47 47 47 46 45 44 43 42 40 39 39 38
24 26 27 25 24 25 23 23 24 24 25 26 27 27 28 29 30 31 32 33 34 35 36 37 39 40 42 43 44 46 47 47 47 48 47 46 45 43 42 40 39 39 38 37
Wind_Direction
321 318 315 314 314 310 308 307 306 295 286 283 280 280 277 272 275 274 272 274 278 281 285 283 287 296 300 302 301 301 302 301 301 302 303 303 301 300 298 297 297 296 294 293
312 310 312 308 311 316 317 310 309 306 297 290 289 286 284 283 281 277 273 277 281 280 284 287 291 298 301 303 303 303 304 304 305 305 305 304 303 302 301 300 298 296 294 293
317 314 310 315 319 328 330 326 319 318 313 301 303 303 300 299 296 286 280 283 286 286 290 292 294 299 303 305 305 304 305 306 307 307 307 306 305 303 301 299 298 296 294 293
320 313 311 320 324 326 324 325 322 321 321 327 325 325 324 316 310 298 288 286 286 287 293 293 298 303 305 306 306 306 308 308 308 307 307 306 304 302 300 298 297 296 294 293
312 311 313 318 322 321 320 322 323 325 329 335 335 336 342 332 323 317 299 293 293 295 302 303 305 308 310 309 309 309 310 310 309 308 307 306 304 302 300 299 297 296 294 293
302 304 307 314 318 317 322 326 329 332 339 348 347 345 355 0 346 335 316 306 308 307 307 307 309 311 311 312 313 313 313 312 312 311 309 308 306 304 302 300 298 296 294 292
296 296 297 303 311 313 319 325 327 326 334 348 0 4 8 5 2 343 327 316 311 312 311 310 311 314 315 317 317 316 314 314 313 313 311 310 308 306 304 301 299 297 295 293
295 294 292 296 301 309 319 327 328 325 330 333 347 357 354 355 352 339 321 312 308 308 309 311 314 316 317 318 318 318 317 317 316 315 314 312 310 308 306 304 302 300 298 295
291 291 293 291 297 306 315 321 327 323 326 328 325 329 330 325 320 313 309 306 303 305 308 311 315 317 319 321 322 322 321 320 319 319 318 316 314 313 311 309 307 304 302 299
290 296 295 289 293 300 306 314 320 328 335 334 323 314 316 315 314 308 307 308 307 309 312 315 319 322 324 325 326 326 325 324 323 322 321 320 319 318 316 314 311 309 305 302
285 290 290 285 290 296 302 308 316 322 325 324 319 319 318 317 316 313 311 309 310 315 319 322 325 326 328 328 328 328 328 327 326 325 324 323 322 320 318 316 314 312 309 305
284 285 284 282 283 286 296 306 309 312 319 321 321 328 323 320 317 315 315 317 321 324 325 327 328 329 330 330 330 330 329 329 328 327 326 325 324 322 320 318 316 314 311 308
279 275 277 273 273 277 288 294 300 305 311 315 319 328 326 322 320 320 322 324 326 328 329 329 330 331 331 331 332 331 331 331 330 329 328 326 325 323 321 320 318 315 313 310
271 269 269 271 273 276 284 288 292 298 306 312 317 321 322 322 323 324 326 328 330 330 330 330 331 332 333 334 334 333 332 332 331 330 329 328 327 325 323 321 319 317 315 313
267 269 271 272 273 278 282 282 286 292 301 308 315 318 320 322 324 327 329 330 331 331 332 333 334 335 335 335 334 334 334 334 333 332 331 330 328 326 324 322 320 318 316 314
264 267 270 273 278 283 283 284 288 293 299 303 308 313 318 322 325 327 328 329 330 332 333 334 335 335 335 335 335 335 335 335 334 333 332 330 328 326 325 323 321 319 317 316
260 263 270 275 281 288 288 288 291 296 299 301 304 311 316 320 323 325 327 328 330 332 333 334 335 335 335 335 335 335 335 335 334 333 333 331 329 327 326 324 321 320 318 317
257 261 268 277 285 290 291 289 295 300 302 303 306 310 315 320 322 324 326 328 330 331 332 333 333 333 334 334 335 335 335 335 334 334 333 331 330 328 327 325 323 321 320 319
255 265 272 279 284 285 290 295 300 304 304 305 308 312 316 320 322 324 326 328 329 331 331 332 332 332 333 334 335 335 335 335 335 334 334 332 331 329 327 326 324 322 321 320
260 269 273 277 281 284 296 301 306 305 305 307 309 311 315 318 321 323 325 327 328 329 330 331 331 331 333 334 334 334 334 335 335 334 334 332 331 330 329 327 325 323 323 321
264 270 273 276 283 292 298 305 305 308 309 308 309 312 315 317 320 322 324 325 326 327 329 329 330 330 331 332 333 333 334 334 334 333 333 332 330 330 330 329 327 325 324 323
263 268 271 276 284 293 298 304 305 306 306 308 310 313 314 316 318 319 321 322 323 325 327 328 329 330 330 331 332 332 333 333 333 333 332 331 330 330 331 330 328 327 326 326
264 268 273 279 286 292 298 301 302 303 306 308 310 311 312 314 315 317 319 320 321 323 326 327 328 330 330 331 331 331 332 332 333 333 333 332 332 332 331 331 330 329 328 328
270 275 277 282 287 292 295 298 300 302 303 305 306 307 309 310 312 313 316 318 320 322 324 326 327 328 329 329 330 331 331 331 332 333 333 333 332 332 332 332 331 330 330 330
271 274 276 280 284 286 288 292 294 297 299 300 302 303 305 307 309 311 314 317 319 321 323 325 326 328 329 330 330 330 331 331 332 332 333 333 333 333 332 332 332 332 332 333
267 269 273 277 280 283 288 289 291 293 294 296 298 301 303 305 307 310 313 315 318 320 322 323 325 326 327 328 329 330 330 331 331 332 332 332 333 333 333 333 332 333 335 336
Height
5870 5869 5867 5866 5865 5864 5862 5860 5859 5858 5857 5856 5855 5854 5853 5852 5852 5851 5851 5852 5851 5851 5851 5852 5852 5851 5851 5850 5849 5848 5847 5845 5844 5842 5841 5839 5838 5836 5835 5833 5832 5830 5828 5826
5870 5868 5867 5865 5864 5863 5861 5860 5858 5857 5855 5854 5853 5851 5849 5848 5847 5847 5848 5848 5848 5848 5848 5848 5848 5848 5848 5847 5846 5845 5843 5841 5840 5838 5836 5834 5832 5830 5828 5826 5824 5822 5820 5818
5869 5868 5866 5865 5864 5862 5861 5859 5858 5856 5854 5852 5851 5850 5848 5846 5845 5844 5844 5844 5845 5846 5846 5846 5846 5845 5845 5844 5843 5842 5840 5838 5835 5833 5830 5828 5825 5823 5821 5818 5816 5814 5811 5809
5868 5867 5865 5864 5863 5862 5861 5859 5857 5855 5853 5851 5850 5848 5846 5844 5843 5842 5842 5843 5843 5844 5844 5844 5843 5843 5842 5840 5839 5838 5836 5833 5830 5828 5825 5822 5819 5816 5814 5811 5808 5805 5802 5800
5867 5866 5865 5864 5863 5861 5860 5858 5857 5855 5852 5850 5848 5847 5845 5842 5842 5842 5841 5841 5841 5842 5841 5841 5841 5839 5838 5837 5835 5833 5831 5828 5825 5822 5819 5816 5813 5809 5806 5802 5799 5796 5793 5790
5866 5865 5864 5863 5861 5860 5859 5858 5856 5854 5852 5850 5848 5847 5845 5843 5842 5841 5841 5841 5841 5840 5840 5839 5838 5837 5835 5834 5831 5829 5826 5823 5820 5816 5812 5809 5805 5801 5797 5794 5790 5787 5784 5781
5865 5864 5862 5861 5860 5859 5858 5857 5856 5854 5852 5851 5849 5846 5846 5843 5842 5841 5841 5841 5840 5840 5839 5838 5837 5834 5832 5830 5827 5825 5821 5817 5814 5810 5805 5801 5797 5793 5789 5785 5782 5778 5775 5771
5862 5862 5861 5860 5859 5858 5857 5856 5855 5853 5852 5851 5849 5847 5847 5844 5843 5842 5841 5841 5840 5839 5838 5836 5834 5831 5829 5826 5823 5820 5816 5812 5807 5803 5798 5794 5789 5785 5781 5776 5772 5769 5765 5761
5860 5860 5859 5857 5857 5856 5855 5854 5853 5852 5851 5850 5849 5848 5846 5844 5843 5842 5841 5840 5839 5838 5836 5834 5831 5828 5825 5822 5818 5814 5810 5805 5801 5796 5791 5786 5781 5776 5771 5767 5762 5758 5755 5751
5858 5858 5857 5856 5855 5855 5854 5853 5852 5851 5849 5849 5848 5846 5846 5844 5843 5841 5840 5839 5837 5835 5833 5830 5828 5825 5821 5817 5813 5808 5803 5798 5793 5788 5783 5777 5772 5767 5762 5757 5753 5748 5744 5740
5856 5856 5855 5854 5854 5853 5853 5852 5850 5849 5849 5848 5847 5848 5845 5843 5841 5840 5838 5837 5835 5832 5829 5827 5823 5820 5816 5812 5807 5802 5797 5791 5786 5780 5775 5769 5764 5758 5753 5748 5743 5739 5734 5730
5854 5854 5853 5853 5852 5852 5851 5850 5849 5849 5848 5846 5845 5848 5843 5841 5839 5838 5836 5833 5831 5828 5825 5822 5818 5815 5810 5806 5801 5795 5790 5784 5778 5773 5767 5761 5755 5750 5744 5739 5734 5729 5724 5719
5852 5852 5851 5851 5852 5851 5850 5849 5848 5847 5846 5844 5843 5845 5841 5839 5837 5835 5832 5830 5827 5824 5821 5817 5813 5809 5805 5800 5794 5788 5783 5777 5771 5765 5760 5754 5748 5741 5736 5730 5724 5719 5714 5709
5849 5849 5849 5849 5848 5847 5847 5846 5845 5845 5843 5842 5841 5840 5838 5835 5833 5831 5828 5825 5822 5819 5816 5812 5808 5804 5799 5793 5788 5782 5776 5770 5765 5759 5752 5746 5740 5733 5727 5721 5715 5709 5704 5698
5846 5846 5846 5845 5845 5844 5844 5844 5842 5841 5840 5839 5838 5836 5834 5831 5829 5826 5823 5820 5817 5814 5811 5807 5803 5798 5792 5787 5781 5776 5770 5764 5758 5752 5745 5739 5732 5725 5719 5713 5706 5700 5694 5688
5843 5843 5843 5842 5842 5841 5841 5840 5839 5838 5837 5836 5834 5832 5830 5827 5825 5822 5819 5816 5813 5810 5806 5802 5797 5792 5787 5782 5776 5770 5764 5758 5752 5745 5738 5731 5724 5717 5711 5704 5697 5691 5684 5678
5840 5840 5840 5840 5839 5838 5838 5837 5836 5835 5834 5832 5830 5829 5826 5823 5821 5818 5815 5812 5809 5805 5801 5797 5792 5787 5782 5776 5770 5765 5758 5752 5745 5738 5731 5724 5717 5709 5702 5695 5688 5681 5674 5667
5837 5837 5837 5837 5837 5836 5837 5834 5833 5832 5830 5828 5826 5824 5822 5820 5817 5814 5811 5808 5804 5801 5796 5792 5787 5782 5776 5771 5765 5759 5752 5746 5739 5731 5724 5716 5709 5701 5693 5686 5679 5671 5664 5657
5834 5835 5834 5834 5833 5833 5833 5831 5830 5828 5827 5824 5822 5820 5818 5815 5813 5810 5807 5803 5800 5796 5791 5787 5782 5777 5771 5765 5759 5753 5746 5739 5732 5724 5717 5709 5701 5693 5685 5677 5670 5662 5654 5647
5831 5832 5832 5831 5830 5830 5831 5828 5826 5826 5823 5821 5818 5816 5813 5811 5808 5806 5802 5798 5795 5790 5786 5781 5776 5771 5765 5759 5753 5747 5740 5733 5725 5717 5709 5701 5693 5685 5677 5669 5661 5653 5645 5637
5828 5828 5828 5828 5827 5826 5826 5824 5823 5822 5820 5816 5813 5811 5809 5806 5804 5801 5797 5793 5789 5785 5781 5776 5771 5765 5759 5753 5747 5740 5733 5726 5718 5710 5702 5693 5685 5677 5669 5661 5652 5644 5636 5628
5824 5824 5824 5823 5823 5824 5821 5820 5818 5816 5814 5811 5808 5806 5804 5801 5798 5795 5792 5788 5784 5780 5775 5771 5765 5760 5753 5747 5741 5734 5727 5719 5711 5703 5695 5686 5678 5669 5661 5653 5644 5636 5628 5620
5819 5820 5819 5819 5820 5818 5816 5814 5813 5811 5808 5806 5803 5801 5798 5796 5793 5789 5786 5782 5779 5774 5770 5764 5759 5753 5747 5741 5735 5728 5720 5712 5704 5696 5687 5679 5670 5661 5653 5645 5637 5628 5620 5612
5814 5813 5813 5812 5812 5811 5810 5809 5807 5805 5803 5800 5798 5796 5793 5790 5787 5784 5780 5776 5772 5768 5763 5758 5752 5747 5741 5735 5728 5721 5713 5705 5697 5689 5680 5672 5663 5654 5646 5638 5629 5621 5613 5605
5808 5807 5806 5806 5806 5805 5804 5803 5801 5799 5797 5795 5792 5790 5787 5784 5781 5778 5774 5770 5766 5761 5756 5751 5746 5740 5734 5728 5721 5714 5706 5698 5690 5682 5673 5665 5656 5648 5639 5631 5623 5615 5607 5599
5801 5800 5799 5799 5799 5798 5798 5796 5795 5793 5791 5788 5786 5783 5780 5777 5774 5770 5767 5763 5758 5754 5749 5744 5739 5733 5727 5721 5714 5706 5699 5691 5683 5675 5666 5658 5650 5642 5634 5625 5617 5609 5602 5594